Regional Weather Roundup
Issued by NWS Sterling, VA

Home | Current Version | Previous Version | Text Only | Print | Product List | Glossary Off
Versions: 1 2 3 4 5 6 7 8 9 10 11 12 13 14 15 16 17 18 19 20 21 22 23 24 25 26 27 28 29 30 31 32 33 34 35 36 37 38 39 40 41 42 43 44 45 46 47 48 49 50

000
ASUS41 KLWX 312110
RWRLWX

REGIONAL WEATHER ROUNDUP
NATIONAL WEATHER SERVICE BALTIMORE MD/WASHINGTON DC
500 PM EDT THU JUL 31 2014

Note: "FAIR" indicates few or no clouds below 12,000 feet
with no significant weather and/or obstructions to visibility.
 TC=TEMPERATURE CELSIUS

 * =Non NWS site. Station does not report precipitation (e.g. rain,
    snow, etc.), thunder, or fog.

DCZ001-MDZ009-015-VAZ040>042-051-053>054-312200-
WASHINGTON METRO
  /KDAA//-FT BELVOIR

CITY           SKY/WX    TMP DP  RH WIND       PRES   REMARKS
WASHINGTON NAT PTSUNNY   87  57  35 S5        30.08S
DULLES         PTSUNNY   84  54  35 S9        30.08F
ANDREWS AFB    MOSUNNY   85  58  38 SW14      30.08F
QUANTICO       PTSUNNY   85  57  38 SW7       30.09S
COLLEGE PARK*  CLOUDY    86  55  35 SW3       30.07F
LEESBURG*      SUNNY     86  61  42 SW5       30.09F
GAITHERSBURG*  PTSUNNY   84  57  39 W7        30.12F

$$

MDZ006>007-011-014-312200-
BALTIMORE METRO

CITY           SKY/WX    TMP DP  RH WIND       PRES   REMARKS
BWI AIRPORT    PTSUNNY   84  57  39 SW7       30.07S
MD SCIENCE CTR   N/A     86  60  41 MISG      30.07F
MARTIN STATE   MOSUNNY   84  68  58 SE13      30.10S
ANNAPOLIS      MOSUNNY   82  63  52 S13       30.08S
FORT MEADE*    MOSUNNY   82  61  47 SW6       30.10S

$$

MDZ012-015-019>023-312200-
MARYLAND EASTERN SHORE

CITY           SKY/WX    TMP DP  RH WIND       PRES   REMARKS
OCEAN CITY     PTSUNNY   77  68  73 S9        30.12S
SALISBURY      PTSUNNY   84  59  42 SW9       30.11F
BAY BRIDGE AP*   N/A     82  59  44 S13       30.09S
CAMBRIDGE*     MOSUNNY   81  63  54 S6        30.10S
EASTON*        MOSUNNY   84  64  51 SW8       30.13S

$$

MDZ017>025-312200-
SOUTHERN MARYLAND

CITY           SKY/WX    TMP DP  RH WIND       PRES   REMARKS
PATUXENT RIVER CLOUDY    81  62  52 S12       30.10S
ST INIGOES     CLOUDY    81  63  54 S6        30.10R
LEONARDTOWN*   CLOUDY    81  61  50 S8        30.12S

$$

MDZ003>005-312200-
NORTH CENTRAL MARYLAND

CITY           SKY/WX    TMP DP  RH WIND       PRES   REMARKS
FREDERICK*     SUNNY     82  64  54 CALM      30.11S
HAGERSTOWN APT PTSUNNY   81  58  45 S7        30.09S
WESTMINSTER*   SUNNY     84  59  42 SW5       30.10F

$$

MDZ501>502-312200-
WESTERN MARYLAND

CITY           SKY/WX    TMP DP  RH WIND       PRES   REMARKS
OAKLAND*       PTSUNNY   70  57  64 SW6       30.19S
CUMBERLAND*    MOSUNNY   86  55  35 W8        30.12S

$$

VAZ025>031-312200-
SHENANDOAH VALLEY

CITY           SKY/WX    TMP DP  RH WIND       PRES   REMARKS
WINCHESTER*    MOSUNNY   84  54  34 SW7       30.08F
STAUNTON*      PTSUNNY   82  55  38 SE7       30.12F

$$

WVZ021-048>050-054>055-312200-
EASTERN WEST VIRGINIA PANHANDLE

CITY           SKY/WX    TMP DP  RH WIND       PRES   REMARKS
MARTINSBURG    PTSUNNY   81  57  43 SE3       30.09S
PETERSBURG*    MOSUNNY   84  45  25 W6        30.09F

$$

VAZ036>039-050-312200-
CENTRAL FOOTHILLS

CITY           SKY/WX    TMP DP  RH WIND       PRES   REMARKS
CHARLOTTESVILL PTSUNNY   84  58  40 S9        30.09F
ORANGE*        PTSUNNY   86  55  35 S10       30.11S

$$

VAZ055>057-312200-
NORTH AND CENTRAL PIEDMONT

CITY           SKY/WX    TMP DP  RH WIND       PRES   REMARKS
FREDERICKSBRG* PTSUNNY   88  59  37 SW10      30.08F
STAFFORD*      PTSUNNY   84  60  43 SW5       30.13S

$$

NCZ024-NYZ072-PAZ021-071-VAZ022-071-312200-
OTHER REGIONAL OBSERVATIONS

CITY           SKY/WX    TMP DP  RH WIND       PRES   REMARKS
NEW YORK CITY  PTSUNNY   78  63  59 VRB3      30.11S
PHILADELPHIA   MOSUNNY   85  58  39 SW14      30.09S
PITTSBURGH     MOSUNNY   76  58  53 SW8       30.09S
ROANOKE        PTSUNNY   79  60  52 S10       30.14S
RICHMOND       CLOUDY    84  61  45 S8        30.11S
RALEIGH        CLOUDY    81  64  56 E6        30.12F

$$

ANZ530>537-312200-
MARINE OBSERVATIONS

STATION/POSITION TIME  TEMP    WIND        PRES
                       AIR SEA DIR/SP/G
                 (UTC) (F)     (DEG/KT/KT) (MB)
THOMAS PT LIGHT  2100   79 78  170/ 15/ 16 1019.1F
BALT KEY BRIDGE  2100   80     130/ 12/ 14 1018.0F
COVE POINT       2100   79     190/ 16/ 17 1019.1S
LEWISETTA        2100   80 80  200/  9/ 10 1019.3S
SOLOMONS ISLAND  2100      80                N/A
PINEY POINT      2100          210/ 10/ 12   N/A

$$




USA.gov is the U.S. government's official web portal to all federal, state and local government web resources and services.